Location: Unspecified
(0.0000°N, 0.0000°E)
Time: 00:52:12
(UTC+00:00)

deb Kosmos-1275 - Pass Details

Date: 10 March 2026
Orbit: 936 x 1103 km, 82.9° (Epoch: 14 April)

Event Time Altitude Azimuth Distance (km) Brightness Sun altitude
Rises 18:51:42 0° 348° (NNW) 3,905 ? -10.3°
Reaches altitude 10° 18:54:22 10° 344° (NNW) 2,944 ? -11.0°
Maximum altitude 19:01:01 56° 268° (W) 1,269 ? -12.7°
Drops below altitude 10° 19:07:33 10° 190° (S) 2,876 ? -14.3°
Sets 19:10:08 0° 186° (S) 3,809 ? -14.9°
